Location: Dammartin
(48.9032°N, 1.6195°E)
Time: 11:26:03
(UTC+00:00)

DMSP B5D2-2 - Pass Details

Date: 03 February 2023
Orbit: 788 x 805 km, 98.3° (Epoch: 26 March)

Event Time Altitude Azimuth Distance (km) Brightness Sun altitude
Rises 17:26:55 0° 17° (NNE) 3,333 7.0 -5.9°
Reaches altitude 10° 17:29:19 10° 22° (NNE) 2,397 6.2 -6.3°
Maximum altitude 17:34:32 56° 100° (E) 953 4.2 -7.1°
Drops below altitude 10° 17:39:41 10° 179° (S) 2,370 6.7 -7.9°
Sets 17:42:02 0° 183° (S) 3,293 7.5 -8.3°
